TimeEST,TemperatureF,Dew PointF,Humidity,Sea Level PressureIn,VisibilityMPH,Wind Direction,Wind SpeedMPH,Gust SpeedMPH,PrecipitationIn,Events,Conditions,WindDirDegrees,DateUTC
12:55 AM,41.5,33.6,73,29.52,10.0,WNW,11.5,20.7,N/A,,Partly Cloudy,300,2012-12-19 05:55:00
1:55 AM,41.4,32.7,71,29.53,10.0,West,18.4,-,N/A,,Mostly Cloudy,280,2012-12-19 06:55:00
2:55 AM,40.1,31.8,72,29.55,10.0,WNW,12.7,-,N/A,,Scattered Clouds,290,2012-12-19 07:55:00
3:55 AM,39.9,31.6,72,29.56,10.0,WNW,18.4,26.5,N/A,,Partly Cloudy,290,2012-12-19 08:55:00
4:55 AM,40.1,31.6,72,29.57,10.0,WNW,15.0,-,N/A,,Overcast,300,2012-12-19 09:55:00
5:55 AM,40.3,31.5,71,29.58,10.0,WNW,16.1,21.9,N/A,,Overcast,300,2012-12-19 10:55:00
6:55 AM,40.6,30.9,68,29.60,10.0,NW,17.3,23.0,N/A,,Overcast,310,2012-12-19 11:55:00
7:55 AM,40.3,30.0,67,29.62,10.0,NNW,8.1,-,N/A,,Mostly Cloudy,330,2012-12-19 12:55:00
8:55 AM,42.1,29.3,61,29.64,10.0,NW,11.5,-,N/A,,Clear,320,2012-12-19 13:55:00
9:55 AM,43.3,29.3,58,29.66,10.0,NNW,13.8,-,N/A,,Mostly Cloudy,340,2012-12-19 14:55:00
10:55 AM,45.7,29.8,54,29.67,10.0,NW,19.6,25.3,N/A,,Mostly Cloudy,320,2012-12-19 15:55:00
11:55 AM,44.8,29.3,55,29.70,10.0,NNW,19.6,29.9,N/A,,Overcast,330,2012-12-19 16:55:00
12:55 PM,44.8,30.0,56,29.73,10.0,NW,19.6,29.9,N/A,,Overcast,320,2012-12-19 17:55:00
1:55 PM,44.4,30.2,57,29.76,10.0,NNW,16.1,24.2,N/A,,Mostly Cloudy,340,2012-12-19 18:55:00
2:55 PM,44.2,30.2,58,29.79,10.0,NW,16.1,24.2,N/A,,Overcast,320,2012-12-19 19:55:00
3:55 PM,43.0,30.9,62,29.82,10.0,NW,15.0,24.2,N/A,,Overcast,320,2012-12-19 20:55:00
4:55 PM,43.2,29.8,59,29.85,10.0,NW,20.7,29.9,N/A,,Overcast,320,2012-12-19 21:55:00
5:55 PM,42.4,29.8,61,29.90,10.0,NW,16.1,20.7,N/A,,Overcast,320,2012-12-19 22:55:00
6:55 PM,42.3,27.5,56,29.94,10.0,North,17.3,-,N/A,,Overcast,350,2012-12-19 23:55:00
7:55 PM,40.6,27.1,59,29.97,10.0,NNW,16.1,21.9,N/A,,Scattered Clouds,330,2012-12-20 00:55:00
8:55 PM,37.9,26.8,64,30.00,10.0,NW,9.2,-,N/A,,Scattered Clouds,320,2012-12-20 01:55:00
9:55 PM,37.2,26.4,65,30.03,10.0,NW,10.4,-,N/A,,Partly Cloudy,310,2012-12-20 02:55:00
10:55 PM,37.2,25.9,64,30.05,10.0,NW,8.1,-,N/A,,Scattered Clouds,320,2012-12-20 03:55:00
11:55 PM,37.9,25.9,62,30.07,10.0,NW,8.1,-,N/A,,Overcast,320,2012-12-20 04:55:00